Terminal Aerodrome Forecast
Issued by NWS Lake Charles, LA

Home | Current Version | Previous Version | Text Only | Print | Product List | Glossary On
Versions: 1 2 3 4 5 6 7 8 9 10 11 12 13 14 15 16 17
000
FTUS44 KLCH 300500
TAFLFT
TAF
KLFT 300522Z 3006/0106 04005KT P6SM BKN060 BKN080
      TEMPO 3010/3014 4SM BR SCT007
     FM301500 09005KT P6SM SCT025=

USA.gov is the U.S. government's official web portal to all federal, state and local government web resources and services.